{"data":{"norad_id":32956,"epoch":"2026-05-25T03:39:56.962368Z","epoch_age_seconds":68747,"freshness":"FRESH","line1":"1 32956U 08025D   26145.15274262  .00000007  00000+0 -19630-4 0  9997","line2":"2 32956  82.5092  12.1163 0021282   7.9116 352.2296 12.43069591816853","mean_motion":12.43069591,"eccentricity":0.0021282,"inclination_deg":82.5092,"raan_deg":12.1163,"arg_perigee_deg":7.9116,"mean_anomaly_deg":352.2296,"bstar":-1.963e-5,"rev_number":81685,"period_min":115.84226743425,"perigee_km":1476.8649264937,"apogee_km":1510.3702627502,"semimajor_km":7871.7545946219,"source":"CELESTRAK","updated_at":"2026-05-25T13:37:55.128738Z"}}